COSMOS 1275 DEB, 12667

Orbit data source: Space-Track

COSMOS 1275 DEB, 12667 is space debris in LEO originally from a launch on Thu, 04 Jun 1981 UTC launched from the Plesetsk Missile And Space Complex (PKMTR). Debris objects in space refer to the collection of defunct objects orbiting the Earth. Examples of debris include non-operational satellites, rocket bodies, and fragments generated from explosions, collisions, or faulty payload assembly.

Loading next visibility...
Identifier
12667, 1981-053X
Orbit
LEO
Country
Flag of CISCIS
Related business
Manufacturer
Unknown
Mission
Spacecraft
Bus & Motor
Unknown
Mass
Unknown
Launch date (UTC)
1981-06-04 (44 years ago)
Launch vehicle
Unknown
Launch site
Plesetsk Missile And Space Complex (PKMTR)
Object type
Payload
Rocket body
Debris
Shape & HBR
Unknown shape, 0.1 m
Radar Cross Section
Small (<0.1 m²)

Expand to show TLE details & history
Last TLE update: 13 hours ago

TLE from 13 hours ago
0 COSMOS 1275 DEB
1 12667U 81053X   25296.98317684  .00000816  00000-0  72594-3 0  9994
2 12667  82.8404 197.9353 0036648  16.4382 356.6712 13.83320265221871
Epoch: 2025-10-23T23:35Z
TLE epoch observation values (Epoch: 2025-10-23T23:35:46.478Z)
Latitude
12.94423°
Longitude
173.00281°
Altitude
927.469 km
Speed
7.403 km/s
True Right ascension
13h 18m 19s
True Declination
12° 52' 16"
Sunlit
Object was in daylight at epoch
Visualization orbit readout
Latitude
Unknown
Longitude
Unknown
Altitude
Unknown
Speed
Unknown
Apparent Right ascension
Unknown
Apparent Declination
Unknown
Sunlit
N/A
Visualization observer readout
Local Sidereal Time
07:18:36
Azimuth
Unknown
Elevation
Unknown
Doppler factor
Unknown
Orbital elements
Apogee altitude
976.128 km
Perigee altitude
922.421 km
Semi-major axis
7,327.412 km
Eccentricity
0.00366
Inclination
82.8404°
RAAN
197.9353°
Arg. of periapsis
16.4382°
True anomaly
356.6467°
Mean anomaly
356.6712°
Eccentric anomaly
356.65896°
Mean motion
3.46033 °/min
Orbital period
104.04 mins
BSTAR
0.00072594
Loading maneuver chart data...
Computing Atmospheric mass density...

Documentation

Showing up to 5 results
|